Regional Weather Roundup
Issued by NWS

Home | Current Version | Previous Version | Text Only | Print | Product List | Glossary Off
Versions: 1 2 3 4 5 6 7 8 9 10 11 12 13 14 15 16 17 18 19 20 21 22 23 24 25 26 27

000
ASUS45 KBOI 241410
RWRID

IDAHO REGIONAL WEATHER ROUNDUP
NATIONAL WEATHER SERVICE BOISE ID
800 AM MDT THU MAY 24 2018

NOTE: "FAIR" INDICATES FEW OR NO CLOUDS BELOW 12000 FEET
WITH NO SIGNIFICANT WEATHER AND/OR OBSTRUCTIONS TO VISIBILITY

IDZ012-014-241500-
SOUTHWEST IDAHO


CITY           SKY/WX    TMP DP  RH WIND       PRES   REMARKS
BOISE          MOSUNNY   61  55  81 SE8       30.01R
CALDWELL       MOSUNNY   59  54  83 NE5       30.00R
MOUNTAIN HOME  PTSUNNY   59  59 100 E5        30.02R
$$

IDZ016-017-241500-
SOUTHCENTRAL IDAHO


CITY           SKY/WX    TMP DP  RH WIND       PRES   REMARKS
BURLEY         MOSUNNY   61  49  64 SW8       30.06R
JEROME         SUNNY     59  49  69 S5        30.08R
TWIN FALLS     MOSUNNY   60  51  72 S9        30.07R
$$

IDZ019>023-241500-
SOUTHEAST IDAHO


CITY           SKY/WX    TMP DP  RH WIND       PRES   REMARKS
IDAHO FALLS    PTSUNNY   49  48  97 N6        30.11R
POCATELLO      SUNNY     56  47  71 CALM      30.10R
REXBURG        PTSUNNY   51  46  83 NE6       30.11R
$$

IDZ006-010-011-018-031-032-241500-
CENTRAL IDAHO MOUNTAINS


CITY           SKY/WX    TMP DP  RH WIND       PRES   REMARKS
MCCALL         CLOUDY    54  50  86 CALM      30.05R
HAILEY         MOSUNNY   50  46  87 NW7       30.14R
STANLEY        NOT AVBL
SALMON         CLOUDY    54  53  97 CALM      30.06R
CHALLIS        PTSUNNY   55  51  86 E3        30.09R
$$

IDZ002-004-006-007-026-241500-
NORTHERN IDAHO


CITY           SKY/WX    TMP DP  RH WIND       PRES   REMARKS
LEWISTON       PTSUNNY   65  58  78 NE6       29.91R
LOWELL           N/A     54  54 100 CALM      29.97R
COEUR D`ALENE  PTSUNNY   60  55  83 S9        29.93R
MULLAN PASS    PTSUNNY   47  46  97 SW5       30.03R FOG
$$




USA.gov is the U.S. government's official web portal to all federal, state and local government web resources and services.